Regional Weather Roundup
Issued by NWS Goodland, KS

Home | Current Version | Previous Version | Text Only | Print | Product List | Glossary On
Versions: 1 2 3 4 5 6 7 8 9 10 11 12 13 14 15 16 17 18 19 20 21 22 23 24 25 26 27 28 29 30 31 32 33 34 35 36 37 38 39 40 41 42 43 44 45 46 47 48 49 50
000
ASUS43 KGLD 180708
RWRGLD

GOODLAND FORECAST AREA HOURLY WEATHER ROUNDUP
NATIONAL WEATHER SERVICE GOODLAND KS
100 AM MDT SAT APR 18 2015

...OFFICIAL OBSERVATIONS...

CITY           SKY/WX    TMP DP  RH WIND       PRES   REMARKS
GOODLAND KS    PTCLDY    47  46  97 SE7       29.95F
HILL CITY KS   LGT RAIN  54  50  86 W13       29.97F
IMPERIAL NEB   LGT RAIN  49  46  90 SE9       29.98S
MCCOOK NEB     CLOUDY    52  49  89 CALM      29.97F
AKRON CO       CLOUDY    41  41 100 N14       30.01S
BURLINGTON CO  MOCLDY    45  42  89 N8        29.96F
LIMON CO       PTCLDY    36  33  89 N8        30.00R
$$

...UNOFFICIAL OBSERVATIONS...

CITY           SKY/WX    TMP DP  RH WIND       PRES   REMARKS
COLBY KS       MOCLDY    52  48  87 NE7       29.93F
GOVE KS          N/A     51  32  48 MISG        N/A
LENORA KS        N/A     53  32  45 MISG        N/A
NORTON KS      RAIN      54  48  82 CALM      29.97R
SHARON SPRINGS   N/A     46  41  82 MISG        N/A
TRIBUNE KS     CLEAR     45  43  93 N7        29.96F
KIT CARSON CO    N/A     42  38  85 MISG        N/A
$$



USA.gov is the U.S. government's official web portal to all federal, state and local government web resources and services.